Lid_Strength_Index
2 2 1 1 1 1 1 1 0 -1 -1 -1 -1 -0 -0 -0 -1 -1 -1 0 -0 -1 -1 -1 -2 -1 -1 -1 -1 -1 -1 -1 -1 -1 -1 -1 -1 -1 -1 -1 -1 -1 -2
3 3 2 2 2 2 2 2 1 1 1 -1 -0 -1 1 -0 -1 -1 -1 -1 1 -0 -1 -1 -1 -1 -1 -1 -1 -1 -1 -1 -1 -2 -1 -1 -1 -1 -1 -1 -2 -2 -1
3 3 3 3 3 2 1 1 2 2 2 2 1 1 -1 1 1 -1 -1 -1 -1 2 1 -0 -1 -1 -1 -1 -1 -1 -1 -1 -1 -1 -1 -1 -1 -1 -1 -1 -2 -2 -2
3 3 3 3 3 3 3 3 3 3 3 3 2 2 2 0 -0 1 0 -1 -1 -1 1 1 -0 -0 -0 -1 -1 -1 -1 -1 -1 -1 -1 -1 -1 -1 -1 -1 -1 -2 -2
4 4 4 4 3 4 3 4 4 4 4 4 3 3 2 2 1 0 0 0 -1 -1 -1 1 1 0 0 -0 -1 -1 -1 -1 -1 -1 -1 -1 -1 -1 -1 -1 -1 -0 -1
4 4 4 4 4 4 4 4 4 4 4 4 4 4 3 2 1 0 -0 -0 -1 -1 -1 -1 -0 0 1 -0 -0 -1 -1 -1 -1 -1 -1 -1 -1 -1 -1 -1 -0 -0 -0
4 4 4 4 4 5 4 4 4 5 5 4 5 5 4 3 1 1 0 -0 0 0 -0 -1 -0 -1 -0 0 -0 -1 -1 -1 -1 -1 -1 -1 -1 -1 -0 -0 -0 -0 -0
4 5 4 5 5 5 5 5 5 6 5 5 6 6 7 5 3 3 3 1 2 2 2 -0 -0 -0 -0 -0 -0 -0 -1 -1 -1 -1 -1 -1 -1 -1 -1 -1 -0 -0 -0
5 4 4 4 4 5 6 6 6 7 8 6 5 7 8 8 7 4 4 3 2 4 4 5 3 -0 -0 -0 0 1 1 1 -0 -1 -1 -1 -1 -1 -1 -1 -1 -0 0
4 4 4 4 4 5 7 8 7 8 7 8 7 6 6 6 9 10 5 4 3 3 2 1 3 2 -0 -0 0 2 3 3 2 -0 -0 -1 -1 -1 -1 -1 -1 -0 -0
4 4 4 5 5 5 7 7 7 7 6 7 7 7 7 6 6 7 9 7 5 3 2 2 3 3 3 -0 -0 1 5 4 3 1 0 -0 -0 -1 -1 -1 -1 -1 -0
5 5 5 5 5 6 7 7 7 6 7 7 7 7 7 8 8 7 8 9 8 5 3 2 2 1 4 2 -0 3 6 5 4 3 1 1 -0 -0 -1 -1 -1 -1 -1
6 6 5 6 6 6 7 7 7 7 7 8 8 8 8 8 7 8 8 9 9 7 5 3 2 1 4 2 3 2 5 6 5 4 3 2 1 1 0 -0 -0 -1 -1
6 6 6 6 6 6 7 7 7 7 7 7 8 8 8 8 7 8 8 9 10 9 8 7 3 2 1 2 2 4 1 7 7 5 4 4 2 2 2 1 1 1 0
6 5 6 7 6 6 7 7 7 7 7 8 8 8 8 8 8 8 8 8 10 12 11 8 7 5 3 2 2 -0 0 2 6 6 6 5 3 3 3 2 2 2 1
6 6 7 7 7 7 7 7 7 7 8 8 8 9 9 9 8 8 8 8 9 9 11 8 7 6 5 4 3 2 1 2 6 7 7 6 5 3 3 3 3 3 3
6 7 7 8 7 8 7 7 8 8 9 9 9 9 9 9 9 8 9 9 9 9 11 9 7 6 6 6 4 2 1 0 0 8 7 7 7 6 5 4 4 4 4
6 7 7 8 8 8 8 8 9 9 10 10 9 9 9 9 10 9 9 9 10 10 11 12 9 8 8 7 6 4 3 0 0 5 8 7 7 7 7 6 6 6 5
7 7 7 8 8 7 7 7 9 10 10 9 9 10 10 10 10 10 10 10 10 10 10 11 11 9 9 8 7 4 2 1 0 3 8 8 8 7 7 7 7 7 7
6 6 7 7 7 7 7 8 9 9 9 9 9 9 9 10 10 10 10 11 11 11 11 12 12 11 9 8 7 5 3 2 2 1 6 7 7 7 7 8 8 8 7
5 5 6 6 7 7 8 9 9 9 10 9 9 9 9 9 9 10 11 11 12 12 13 13 13 12 10 11 10 7 3 3 2 2 4 5 5 5 6 7 6 7 8
6 6 6 7 8 7 9 9 10 10 9 8 9 9 9 10 10 11 11 12 12 13 13 13 13 13 12 11 10 10 9 4 5 1 2 3 4 5 5 5 7 8 8
6 7 7 7 8 7 9 9 10 9 9 8 9 9 10 10 10 11 12 12 12 13 13 13 14 14 13 12 11 12 11 7 4 3 3 5 5 4 4 5 9 9 9
7 7 7 8 8 8 10 10 10 10 9 9 9 9 10 11 11 13 12 12 13 13 13 13 14 12 12 12 11 11 12 11 7 5 3 9 10 6 7 5 9 8 9
8 8 8 9 9 9 10 10 11 11 11 11 10 9 10 11 12 12 13 13 14 14 13 13 12 12 11 11 12 12 13 14 11 11 13 11 13 11 11 11 8 9 9
8 8 9 9 9 10 10 11 11 11 13 12 11 10 11 11 12 13 13 13 15 15 15 15 14 12 12 12 12 12 14 15 14 12 14 12 13 11 12 13 12 11 10